Regional Weather Roundup
Issued by NWS

Home | Current Version | Previous Version | Graphics & Text | Print | Product List | Glossary On
Versions: 1 2 3 4 5 6 7 8 9 10 11 12 13 14 15 16 17 18 19 20 21 22 23 24 25 26 27
000
ASUS45 KCYS 151810
RWRWY

WYOMING REGIONAL WEATHER ROUNDUP
NATIONAL WEATHER SERVICE CHEYENNE WY
1100 AM MST MON JAN 15 2018

NOTE:  "FAIR" INDICATES FEW OR NO CLOUDS BELOW 12,000 FEET
WITH NO SIGNIFICANT WEATHER AND/OR OBSTRUCTIONS TO VISIBILITY.

WYZ001-151900-
YELLOWSTONE NATIONAL PARK

CITY           SKY/WX    TMP DP  RH WIND       PRES   REMARKS
LK YELLOWSTONE   N/A     22  16  78 CALM      30.39F
6HR MIN TEMP:   8; 6HR MAX TEMP:  25;

W YELLOWSTONE  NOT AVBL

$$
WYZ002>013-054>058-071-098>099-151900-
NORTHERN WYOMING

CITY           SKY/WX    TMP DP  RH WIND       PRES   REMARKS
JACKSON        FOG       25  21  86 CALM      30.41R VSB 1/4
CODY           PTSUNNY   19  13  77 CALM      30.55F
GREYBULL       FAIR      18  10  71 NW13      30.60R WCI   5
6HR MIN TEMP:  14; 6HR MAX TEMP:  20;

WORLAND        FAIR      20  13  74 NW12      30.58S WCI   8
6HR MIN TEMP:  14; 6HR MAX TEMP:  22;

SHERIDAN       FAIR       0  -2  91 CALM      30.66S
6HR MIN TEMP:  -8; 6HR MAX TEMP:   6;

BUFFALO        FAIR       4  -1  80 S6        30.57R WCI  -7
6HR MIN TEMP:   0; 6HR MAX TEMP:   8; 6HR PCP: TRACE;

GILLETTE         N/A     -3  -7  82 W3        30.62F
6HR MIN TEMP: -17; 6HR MAX TEMP:  -3;

HULETT         CLOUDY    -2  -8  78 MISG      30.64F
NEWCASTLE      FAIR       3  -9  55 NW14      30.59S WCI -15

$$
WYZ014>020-022>026-101>103-151900-
CENTRAL WYOMING

CITY           SKY/WX    TMP DP  RH WIND       PRES   REMARKS
BIG PINEY      CLOUDY    25  22  88 S12       30.40R WCI  14
6HR MIN TEMP:  17; 6HR MAX TEMP:  29;

PINEDALE       CLOUDY    23  23 100 SE5       30.40R WCI  17
DUBOIS         CLOUDY    21  19  93 SE9       30.39F FOG     WCI  11
LANDER         CLOUDY    22  20  92 E9        30.49S WCI  12
6HR MIN TEMP:  22; 6HR MAX TEMP:  27; 6HR PCP:  0.02;

RIVERTON       CLOUDY    22  14  71 E10       30.49S WCI  11
6HR MIN TEMP:  21; 6HR MAX TEMP:  26; 6HR PCP: TRACE;

CASPER         CLOUDY     9  -6  50 E9        30.55S WCI  -4
6HR MIN TEMP:   7; 6HR MAX TEMP:  14; 6HR PCP: TRACE;

DOUGLAS        FAIR      12  -5  46 NW18      30.55F WCI  -6
6HR MIN TEMP:   5; 6HR MAX TEMP:  15;


$$
WYZ021-027>030-104>119-151900-
SOUTHERN WYOMING

CITY           SKY/WX    TMP DP  RH WIND       PRES   REMARKS
EVANSTON       FAIR      32  26  78 CALM      30.34R
6HR MIN TEMP:  19; 6HR MAX TEMP:  32;

FORT BRIDGER   FAIR      33  24  68 E8        30.38R WCI  27
ROCK SPRINGS   CLOUDY    24  19  81 E15       30.41R WCI  11
6HR MIN TEMP:  21; 6HR MAX TEMP:  25;

DIXON            N/A     31  18  57 N13       30.41R WCI  22
RAWLINS        PTSUNNY   24  13  62 VRB3      30.40F
6HR MIN TEMP:  20; 6HR MAX TEMP:  26; 6HR PCP: TRACE;

SARATOGA       FAIR      25  14  63 N15       30.39F WCI  12
LARAMIE        FAIR      18   9  68 N16G25    30.34F WCI   3
6HR MIN TEMP:  15; 6HR MAX TEMP:  22; 6HR PCP: TRACE;

CHEYENNE       FAIR      14  -1  51 N23G30    30.40S WCI  -5
6HR MIN TEMP:  12; 6HR MAX TEMP:  17; 6HR PCP: TRACE;

TORRINGTON     FAIR      13  -4  46 NW16G24   30.56R WCI  -3
6HR MIN TEMP:   8; 6HR MAX TEMP:  17;


$$




USA.gov is the U.S. government's official web portal to all federal, state and local government web resources and services.